Theta_e
350 349 351 352 355 356 354 354 354 356 354 354 356 356 355 353 353 353 353 351 350 348 350 351 350 350 350 352 353 351 347 349 352 357 364 364 363 364 364 367 370 370 369 367 364 361 361 360 361 361 360 359 358 359 359 359 359 359 358 357 357 356 356 356 356 357 356 356 357 357 357 357 357 356 356 356 357 357 357 357 357 357 357 357 357
350 351 350 352 354 355 357 356 357 356 355 355 359 359 356 355 354 353 352 352 350 349 353 352 350 349 350 353 355 353 351 350 354 359 361 368 365 365 368 365 368 371 369 368 366 363 362 361 362 363 363 361 359 359 359 359 359 359 359 358 357 357 357 357 357 357 357 358 358 358 358 358 358 357 356 356 357 357 357 357 358 358 358 358 358
354 350 349 351 354 355 355 356 354 356 361 358 357 357 359 358 354 355 356 353 352 355 354 353 351 351 354 354 355 357 356 356 354 358 367 372 368 367 365 367 365 369 370 368 366 365 363 362 363 364 363 362 361 359 359 360 360 360 359 358 358 358 357 358 358 358 358 358 360 359 360 361 358 358 358 358 358 358 358 358 358 358 358 358 360
358 354 351 349 351 351 356 352 352 354 355 354 354 354 352 352 354 355 356 355 355 355 357 355 352 354 357 356 356 355 357 358 356 357 360 367 365 364 365 366 367 367 371 369 367 367 365 364 363 364 364 362 362 361 359 359 360 360 360 359 359 359 360 359 358 358 358 359 360 361 361 361 361 361 360 359 359 359 359 359 359 359 359 359 360
358 357 355 352 353 353 353 353 351 352 354 353 353 355 354 354 353 357 358 354 353 354 356 356 354 354 354 355 357 356 357 357 357 357 358 358 361 361 358 364 363 367 366 370 369 368 366 365 364 364 364 364 362 361 360 360 360 362 360 359 359 360 361 361 359 359 359 360 361 361 361 361 361 361 361 360 360 359 359 359 359 359 359 360 361
358 356 354 355 353 352 353 356 356 354 355 353 351 352 353 351 350 353 352 353 354 355 355 352 353 356 353 354 358 358 357 355 356 357 358 359 361 360 361 364 364 362 361 364 368 368 368 367 366 365 365 364 363 363 360 360 360 362 361 360 361 361 362 361 360 360 361 361 361 361 362 362 361 361 361 362 361 360 360 360 360 359 360 361 360
357 355 353 353 350 353 354 356 356 354 348 348 349 350 350 349 350 348 348 350 351 351 348 347 348 351 353 354 353 357 358 357 357 356 356 356 360 362 361 365 365 363 362 360 365 367 367 368 367 365 365 365 364 363 361 360 360 361 360 362 362 362 362 362 362 361 361 361 361 361 362 362 362 361 361 361 362 361 361 360 360 361 361 361 360
356 353 351 352 350 348 349 352 353 351 348 348 348 347 347 345 344 342 341 346 349 347 348 346 348 350 353 354 354 356 356 357 356 356 356 357 357 359 358 364 359 362 366 360 359 360 365 367 368 367 366 365 365 363 362 361 361 363 361 362 363 363 362 362 362 362 362 362 362 362 362 362 362 361 362 361 362 361 362 361 361 361 361 361 361
356 357 356 353 350 349 350 350 353 349 350 348 347 347 347 345 345 347 347 346 346 344 344 344 344 345 347 350 351 353 353 354 355 354 356 355 356 355 359 358 357 365 363 362 361 361 362 365 368 368 367 365 365 365 364 362 361 362 363 362 363 363 362 362 361 362 362 363 363 362 362 362 362 362 361 362 361 361 361 361 361 361 361 361 361
357 358 356 354 351 349 349 353 351 351 351 349 348 347 346 345 343 346 347 346 344 342 342 344 345 344 344 344 348 350 351 353 355 356 355 354 355 354 354 358 358 360 359 360 364 360 360 361 366 369 367 366 364 364 364 364 364 363 363 364 364 364 363 362 362 362 362 362 362 362 362 361 361 361 361 362 362 362 361 361 361 361 361 361 361
357 358 357 355 352 351 352 355 355 354 351 349 348 347 347 346 345 347 350 349 346 346 345 345 343 343 343 343 347 349 351 352 353 354 354 353 355 356 354 354 354 355 358 356 359 359 362 361 361 365 367 366 366 365 365 364 364 365 363 363 364 364 364 363 362 362 363 362 362 361 361 361 360 361 361 361 362 361 361 361 361 361 362 361 361
355 356 359 359 358 357 357 357 356 355 352 348 347 347 347 347 348 348 348 349 349 348 346 344 344 343 343 344 346 346 346 347 349 351 353 354 355 356 353 351 353 353 351 355 355 357 361 359 363 363 364 366 366 366 366 365 364 364 364 364 363 364 363 364 363 363 363 363 362 360 360 360 360 360 361 361 360 360 360 360 360 361 361 361 360
358 356 358 362 362 363 361 359 359 356 354 350 350 350 351 351 350 350 347 345 345 348 347 346 343 341 342 342 342 346 346 347 348 350 351 352 355 356 355 353 352 350 352 356 354 351 351 359 355 357 362 362 364 365 365 365 364 363 364 365 365 364 364 364 364 363 363 363 362 361 359 359 359 360 360 360 360 359 359 359 358 359 360 361 360
361 361 361 360 360 360 360 360 360 357 355 354 353 352 351 350 349 347 349 345 343 345 346 345 341 338 336 336 339 342 344 345 345 347 349 351 354 355 356 357 355 352 349 348 353 352 349 359 358 358 360 362 362 364 364 364 364 363 363 364 365 365 365 365 365 364 364 363 363 361 360 359 359 359 360 360 359 359 358 358 358 358 359 359 360
360 360 357 357 359 359 358 361 359 358 356 354 354 352 352 349 349 346 344 346 345 346 346 346 338 339 340 336 331 331 338 343 344 344 347 353 354 352 354 354 357 359 357 353 348 350 351 360 359 359 356 356 358 360 363 365 363 365 362 361 363 365 365 365 365 365 365 364 363 363 361 360 359 360 360 359 359 358 358 358 358 357 357 359 359
359 360 360 360 360 360 360 360 360 359 358 356 355 352 352 351 349 347 346 341 341 341 346 346 344 340 331 333 333 331 326 330 333 345 351 354 355 353 353 353 355 354 352 347 347 353 356 362 357 362 359 358 358 359 363 363 365 367 367 364 361 361 364 366 365 365 365 365 363 362 361 360 359 359 360 360 360 359 358 358 358 358 357 358 358
358 354 353 355 357 358 356 355 356 358 356 356 352 350 349 347 347 347 346 343 340 341 344 346 345 349 341 333 331 329 328 331 331 337 349 351 351 350 349 349 351 351 350 348 350 348 349 351 355 355 360 360 359 359 362 363 364 366 365 367 363 360 361 364 366 366 366 365 365 363 361 360 360 359 361 361 360 360 359 358 358 358 358 358 358
354 352 350 353 353 355 355 356 355 355 358 354 352 352 352 349 351 351 345 346 343 342 343 348 349 347 347 345 340 332 331 333 331 325 339 342 352 350 350 350 352 349 348 349 350 349 349 350 353 355 356 357 355 355 357 361 364 363 363 363 365 361 360 361 364 367 366 366 365 365 363 361 360 360 361 362 362 360 360 358 358 358 358 358 358
349 355 355 354 354 356 355 355 355 358 358 358 355 353 351 352 351 349 348 349 347 343 343 343 347 348 348 347 345 345 343 337 330 332 328 334 341 344 350 348 350 350 348 344 347 345 343 348 346 348 352 356 358 359 358 358 363 363 365 364 364 362 361 360 361 365 367 367 366 366 365 363 360 360 359 360 362 361 360 360 358 358 358 358 358
354 355 355 353 354 355 355 355 359 356 359 359 356 359 355 351 350 347 348 344 347 345 344 343 340 341 346 347 347 348 349 344 341 335 333 330 332 339 339 342 350 348 346 345 346 346 344 348 345 346 349 350 353 359 360 358 356 357 360 361 362 363 360 359 360 361 364 367 367 367 366 365 363 361 359 362 362 363 361 361 360 359 359 359 359
355 353 355 355 354 354 353 353 352 353 365 360 356 353 351 349 351 347 349 349 348 346 344 344 344 341 345 344 346 346 345 343 342 343 335 331 330 332 335 340 344 344 347 346 347 347 347 345 346 346 347 348 351 355 358 359 358 357 358 359 362 361 360 358 358 362 362 364 367 367 366 366 365 365 364 364 363 364 363 362 363 362 361 360 361
354 357 356 353 353 352 350 348 348 345 351 348 349 352 355 355 352 353 351 349 350 348 344 345 347 345 343 343 339 340 341 339 339 340 338 335 329 330 333 333 333 338 345 347 346 345 343 344 345 347 349 347 347 350 352 357 357 356 358 359 361 359 357 357 357 360 361 361 363 366 367 367 366 366 366 366 365 365 365 364 365 365 364 364 364
352 351 352 352 355 354 347 346 348 349 350 349 347 346 343 347 350 351 352 349 350 349 348 348 347 344 343 343 341 340 337 335 335 336 334 331 332 331 331 331 331 332 338 343 345 347 351 350 349 353 347 347 346 347 348 348 355 356 357 357 355 356 356 356 356 358 356 357 359 362 365 366 366 366 366 367 367 366 366 366 366 366 366 365 366
352 352 349 343 352 352 351 349 350 350 349 347 347 347 345 346 348 349 349 351 352 348 347 347 344 344 343 342 344 343 341 341 341 337 334 335 333 330 329 332 333 334 339 342 345 344 344 347 352 350 349 349 349 347 348 349 349 355 354 354 353 352 353 354 355 354 354 352 352 356 359 362 364 364 366 367 367 367 367 367 367 367 367 367 367
349 348 348 348 351 348 349 351 349 349 350 350 349 349 350 349 349 346 346 346 354 350 349 344 344 342 340 342 343 340 340 343 340 338 339 337 335 330 331 333 330 331 336 338 338 343 346 348 351 352 349 350 349 347 347 345 346 350 351 353 351 350 350 351 351 351 351 350 351 353 354 355 356 358 360 362 364 366 367 368 368 368 368 368 369
345 350 348 348 351 350 348 349 351 350 349 350 349 349 349 348 348 347 344 348 348 347 348 345 348 345 345 344 342 340 341 341 340 340 335 330 328 326 327 330 331 330 333 335 339 338 342 346 349 349 347 346 348 348 346 347 346 348 350 350 348 346 348 349 350 348 349 349 348 350 351 352 354 355 356 358 360 361 364 366 368 369 369 369 367
348 348 350 351 349 350 349 348 349 349 349 349 347 348 349 348 349 347 347 349 348 348 348 343 340 341 342 345 344 343 341 343 342 337 335 331 331 330 328 323 326 329 329 331 334 337 336 341 345 350 348 346 348 348 348 347 349 350 350 348 346 345 345 344 347 348 347 347 347 347 348 349 351 353 353 355 355 359 361 362 363 364 365 364 363
348 350 348 349 351 348 348 346 347 345 346 348 348 346 348 347 349 348 346 347 346 347 348 345 338 339 339 342 342 340 340 343 342 341 338 337 336 334 331 327 323 320 326 326 330 331 338 336 342 347 347 346 348 348 348 347 346 349 351 351 349 349 349 346 344 343 342 343 345 345 345 346 347 348 350 351 351 352 355 357 357 358 358 359 358
344 345 348 353 351 349 346 346 346 347 345 346 347 347 348 347 344 347 346 346 349 346 344 341 340 336 340 337 339 341 341 339 338 341 344 341 337 336 335 330 328 322 321 323 325 326 330 333 331 339 347 347 345 348 349 348 349 348 348 351 351 350 348 343 342 342 342 342 342 343 343 344 343 344 346 348 348 349 351 351 352 353 354 353 354
345 344 345 345 348 346 346 346 346 344 344 344 345 346 347 347 345 346 346 347 347 346 344 343 341 341 339 337 337 336 335 333 332 334 338 338 338 338 336 334 332 326 324 322 323 329 329 334 334 332 342 344 345 345 347 347 349 350 346 347 347 348 342 342 342 342 342 341 340 341 341 341 342 343 342 343 345 346 348 348 348 349 350 350 351
348 350 348 345 345 345 346 343 342 343 345 344 346 346 346 346 346 348 348 347 345 345 347 343 342 342 340 338 339 335 334 333 334 334 334 334 335 335 334 335 333 330 327 326 322 328 334 330 334 336 335 338 346 346 348 347 347 346 344 343 346 346 344 343 340 339 339 339 339 339 338 338 340 340 340 340 341 343 344 345 345 345 346 347 348
348 348 348 344 343 341 338 338 339 340 341 343 344 344 347 347 348 347 346 346 343 342 343 344 341 339 339 337 335 334 335 334 333 333 333 334 334 334 333 332 332 332 331 327 324 324 330 332 333 335 337 337 340 343 344 344 345 345 342 342 346 346 346 346 343 339 338 337 338 339 337 337 338 339 339 339 340 342 343 343 342 343 343 344 344
346 344 344 344 344 342 341 342 340 341 342 342 343 344 344 345 346 347 344 344 344 343 344 344 340 341 341 336 334 334 335 332 331 331 331 331 331 331 331 330 329 330 330 327 324 326 330 335 335 335 337 338 342 345 343 344 344 342 342 343 344 342 342 344 346 344 341 337 336 337 337 337 337 337 337 339 339 341 342 343 342 341 341 340 341
345 341 343 341 342 343 341 341 342 342 342 343 340 340 340 341 344 341 340 342 341 341 342 341 342 338 339 336 334 333 333 331 330 329 328 329 328 327 327 326 327 328 330 327 326 326 326 332 333 338 339 340 338 345 342 342 343 343 341 340 342 344 343 345 346 349 344 340 336 334 336 336 336 336 336 337 338 339 339 340 340 338 338 337 338
344 345 344 344 345 343 341 341 343 342 344 343 342 340 340 341 341 340 340 339 343 340 337 339 340 340 337 335 332 332 331 330 329 328 327 327 327 326 325 326 326 325 327 328 326 324 326 329 333 333 336 341 339 340 343 343 344 343 340 339 340 342 345 346 345 347 344 341 337 335 335 335 336 336 336 336 336 335 336 336 336 337 336 336 335
342 346 345 341 339 340 340 339 339 341 343 346 343 341 341 341 341 339 339 340 341 340 338 338 338 338 334 333 331 331 331 329 328 327 327 327 326 325 325 325 325 325 326 327 328 326 327 327 332 333 335 336 340 343 345 344 344 343 341 340 341 341 343 345 346 346 344 339 338 336 335 335 335 335 334 334 334 332 333 334 333 334 333 333 333
342 338 341 346 345 340 338 339 341 340 343 345 343 341 341 343 341 339 340 338 336 338 340 338 335 336 334 331 331 332 331 328 327 326 326 326 326 326 325 325 325 325 325 325 325 326 325 325 329 333 335 336 340 341 343 343 344 342 341 340 342 340 341 344 346 348 344 340 339 337 334 334 334 334 334 334 333 332 331 331 331 331 330 330 330
342 338 339 337 336 338 340 340 339 340 341 347 344 344 345 339 338 339 342 343 340 338 338 338 337 335 334 332 331 332 330 328 327 327 326 325 326 326 325 324 325 324 323 323 324 323 324 325 328 330 334 333 335 338 341 343 341 339 339 341 342 340 339 341 346 349 351 352 350 345 336 335 334 334 334 333 333 331 330 329 328 327 326 326 324
332 333 334 334 338 340 339 339 340 341 340 339 343 346 345 343 342 343 340 337 338 339 338 336 335 333 332 332 332 332 331 330 328 326 325 326 327 327 327 325 325 324 322 322 322 322 322 323 327 330 331 333 335 334 339 344 344 339 338 340 337 341 342 342 343 349 352 352 349 345 345 342 338 336 332 331 332 331 330 328 326 324 324 322 322
334 334 332 336 337 336 337 339 340 339 338 338 346 346 340 338 338 335 334 333 333 336 338 338 336 333 332 332 330 330 331 331 329 328 327 326 327 327 327 326 325 323 321 322 321 320 321 322 324 327 330 331 334 336 340 341 343 339 341 341 337 339 341 345 346 346 351 351 351 352 344 341 339 337 332 331 331 331 330 330 329 328 325 323 321
339 336 336 337 339 338 337 337 337 339 338 340 340 338 338 337 340 336 334 331 332 336 336 335 333 332 332 332 331 331 332 333 327 325 325 324 326 326 326 326 325 323 322 321 320 320 320 321 322 326 328 329 331 331 331 336 338 336 340 341 339 342 344 344 347 350 349 348 349 353 353 352 350 348 345 341 339 335 333 333 334 332 328 323 323
343 343 343 344 336 333 334 337 340 339 338 336 337 334 332 338 339 338 335 334 335 335 335 334 332 331 331 330 332 334 329 326 325 323 321 320 319 325 327 326 325 323 322 321 320 320 319 319 320 322 324 326 329 331 331 333 339 342 340 341 339 340 342 340 345 349 353 350 346 346 351 355 354 353 350 347 348 342 342 338 341 338 332 326 325
344 345 340 336 332 335 334 332 332 336 333 333 329 327 328 330 337 339 337 335 334 332 330 329 329 330 331 331 331 334 334 332 332 326 323 321 322 321 320 320 320 323 321 320 320 320 320 318 320 321 322 324 327 330 332 333 337 341 341 341 339 338 337 335 334 344 352 352 344 344 347 353 353 352 355 354 354 351 347 346 339 338 332 328 327
345 343 339 339 340 341 336 333 335 334 336 331 322 324 327 327 331 337 337 333 331 330 330 329 329 329 330 331 330 329 327 329 326 328 328 328 323 321 320 319 319 319 318 321 320 319 320 318 318 319 321 322 325 329 332 334 334 338 333 336 338 337 335 335 336 335 347 354 345 342 344 353 353 351 352 356 356 355 355 346 338 337 333 329 328
344 340 340 337 336 338 338 341 337 338 336 329 322 322 324 324 327 332 336 336 333 333 333 332 331 331 332 332 325 326 327 328 328 327 329 330 328 322 319 319 320 320 320 319 318 322 321 319 319 320 321 323 324 327 331 335 336 335 336 334 337 338 338 336 339 340 344 353 350 347 345 350 351 347 350 354 357 355 355 343 338 336 334 331 330
341 337 337 338 339 339 340 343 344 341 338 329 320 319 320 321 324 328 336 335 335 335 335 333 331 333 336 330 327 327 327 330 330 328 329 330 331 330 329 327 326 323 318 317 317 316 319 321 321 320 323 326 325 327 331 333 334 335 335 335 339 339 335 335 340 342 354 351 345 344 344 347 352 347 346 350 356 357 356 347 336 334 334 332 331
338 339 338 339 343 338 339 340 340 337 330 325 319 318 317 317 319 324 332 334 335 336 336 335 335 335 332 332 331 330 333 334 331 329 332 331 329 328 327 326 325 323 323 322 322 321 322 321 321 322 322 324 325 327 330 333 334 336 339 339 340 341 340 341 341 346 346 346 344 341 334 345 352 348 347 348 353 353 356 344 337 333 332 330 330
337 336 337 337 334 334 339 340 337 336 333 319 319 317 316 316 319 328 332 333 334 334 333 334 334 337 336 333 329 327 330 331 325 323 326 328 328 326 324 324 323 322 322 318 318 319 321 321 321 321 321 322 320 325 327 329 332 339 339 340 346 335 335 338 337 339 342 342 346 342 337 338 352 345 346 349 349 352 354 356 340 332 331 329 329
332 334 336 335 335 335 339 338 339 338 338 328 316 316 316 316 319 330 333 333 333 333 334 333 333 334 335 333 328 329 334 332 325 318 320 319 326 324 322 322 321 321 320 322 320 318 317 315 313 314 314 315 317 317 316 318 321 325 336 336 335 337 336 334 335 335 336 342 346 344 343 338 346 346 346 347 348 347 353 355 353 332 330 327 327
332 332 333 338 335 344 337 332 332 333 331 327 315 314 316 317 321 329 333 334 333 334 332 332 335 333 333 338 333 330 329 329 321 317 316 320 323 322 321 320 319 319 319 320 322 322 317 316 316 317 317 316 316 317 318 317 317 319 327 330 333 336 334 333 331 332 334 338 345 349 343 340 344 345 342 344 345 350 352 354 349 339 327 324 324
335 337 334 331 336 332 327 326 332 332 329 326 312 317 317 315 322 332 335 335 332 332 333 333 332 329 330 331 331 328 327 328 314 314 312 315 321 319 320 319 318 318 318 319 319 319 320 321 322 323 325 321 320 320 323 318 319 321 326 332 336 336 335 334 332 332 331 333 340 349 339 340 340 345 344 340 336 344 350 347 346 341 338 336 331
Wind_Speed
5 6 5 5 5 6 5 4 3 3 4 4 4 4 4 4 4 4 3 3 3 4 4 4 3 3 3 4 4 4 5 5 6 7 5 4 6 10 14 10 13 15 15 14 16 15 15 15 15 16 16 15 15 16 16 16 17 16 16 16 15 15 15 14 14 14 13 13 12 12 12 11 11 11 11 11 10 9 9 9 9 9 8 8 7
5 4 5 5 4 4 3 2 2 3 3 4 4 4 3 3 3 3 4 3 3 3 3 4 5 4 4 3 3 4 4 4 4 5 6 3 5 7 17 14 13 16 17 16 15 16 17 16 16 16 17 17 16 17 16 17 17 17 17 17 16 16 16 15 15 15 14 14 13 12 12 11 11 11 12 11 10 10 10 10 10 9 9 9 8
5 6 5 4 4 4 3 2 2 3 2 1 1 1 1 2 3 3 2 3 3 4 4 4 4 4 5 5 4 3 4 4 4 4 4 1 1 4 8 17 15 15 18 18 17 16 16 17 18 17 17 17 17 18 18 18 17 17 17 17 17 17 16 15 15 16 15 14 13 13 11 11 12 11 11 11 12 11 11 11 10 10 10 9 8
4 4 5 4 3 3 2 2 2 2 2 2 3 3 2 4 5 5 3 3 4 4 3 3 4 5 4 4 4 4 4 4 4 4 2 2 4 3 3 7 14 14 16 19 19 18 17 17 17 18 17 18 18 18 18 18 18 18 18 18 18 17 15 16 16 17 16 15 13 13 12 12 12 11 12 12 12 12 11 11 10 10 10 9 8
4 3 3 3 3 3 3 3 3 2 2 3 3 2 3 3 5 4 3 4 4 4 3 4 5 5 4 5 4 5 4 4 4 4 4 4 4 5 5 6 7 14 14 16 20 19 19 18 18 18 18 19 19 19 18 19 19 17 18 18 17 16 16 16 17 17 16 15 14 14 14 14 13 12 12 11 11 11 11 11 10 10 10 9 9
3 3 2 1 1 1 2 2 1 2 3 3 4 3 3 4 5 4 6 5 4 3 3 4 4 4 5 4 4 5 4 5 5 5 4 4 5 6 6 6 6 6 8 14 16 19 20 19 19 19 19 19 19 18 19 19 19 17 19 18 17 16 17 17 18 17 16 15 15 15 14 14 14 13 12 12 11 12 12 11 11 11 10 9 10
3 3 2 1 1 1 2 2 1 2 3 2 3 4 4 4 4 5 6 6 5 4 4 5 5 6 6 4 4 3 5 6 5 5 5 5 5 5 6 6 7 7 7 7 11 16 19 20 20 20 20 19 19 19 20 20 20 19 20 18 18 17 17 17 17 16 16 16 16 15 15 15 15 15 14 14 12 12 12 12 12 11 10 10 11
2 2 2 2 1 1 1 3 4 2 2 2 3 5 4 4 4 4 6 6 4 5 4 6 6 7 5 4 5 4 5 5 5 6 7 6 6 7 6 6 8 7 9 7 7 10 17 19 20 21 20 20 20 20 21 21 20 19 20 19 19 19 18 17 17 16 16 16 16 16 15 15 15 16 15 15 14 13 13 13 12 12 12 11 11
1 2 2 2 3 2 1 2 3 2 5 6 5 5 5 5 4 4 5 5 5 6 5 5 7 6 6 6 6 5 5 5 5 5 5 7 7 8 7 8 9 11 8 8 8 7 13 17 18 21 21 21 20 20 20 20 21 20 20 21 20 19 19 18 18 17 17 17 17 16 16 16 16 16 16 16 15 14 13 13 14 13 13 12 12
4 4 4 4 3 2 1 4 4 7 6 4 4 6 5 5 6 5 4 4 5 6 6 5 5 6 7 7 6 5 5 5 5 5 6 7 8 8 8 8 8 9 8 8 8 8 8 12 18 19 20 20 21 21 20 20 20 22 21 20 20 20 19 19 19 18 18 18 17 16 16 16 16 16 16 15 15 15 14 14 14 14 13 13 13
1 2 4 4 4 5 6 7 6 5 5 5 5 5 6 5 6 5 4 4 5 6 6 5 6 7 8 8 6 6 6 6 6 7 7 8 9 9 9 8 8 8 8 9 7 9 9 8 8 9 12 21 21 22 22 22 21 21 22 22 21 20 20 19 19 19 19 19 18 17 17 17 16 16 16 16 16 15 15 14 14 14 14 14 13
2 2 4 5 6 5 5 5 6 5 5 6 6 4 6 6 5 5 6 5 5 6 6 6 6 7 8 8 9 8 9 9 9 8 7 9 9 7 9 9 9 9 9 9 8 8 7 8 8 9 9 14 22 21 22 22 22 22 22 23 23 22 22 20 20 20 20 20 19 19 18 18 17 17 17 16 16 15 15 15 15 14 14 14 14
4 4 4 5 4 4 3 5 6 6 5 6 7 7 6 5 5 4 5 5 5 5 6 6 5 6 7 10 10 9 11 11 11 9 10 9 8 8 8 9 9 9 8 8 10 11 9 9 9 8 9 8 12 20 22 22 22 22 23 23 24 23 23 22 21 20 20 20 20 19 19 18 18 18 17 17 16 16 16 15 15 15 15 14 14
3 3 4 5 4 4 5 5 4 5 6 6 6 6 5 5 5 5 4 6 6 5 5 4 4 5 6 7 7 7 9 10 11 11 11 9 8 7 6 7 9 7 8 9 9 11 11 8 9 9 9 9 9 10 13 16 18 23 23 23 24 24 24 24 23 22 21 21 20 20 19 19 18 18 18 17 17 17 16 16 16 15 15 15 15
5 4 3 3 4 4 5 4 5 5 5 5 5 4 4 6 6 6 6 5 6 5 6 5 6 5 5 6 7 7 4 6 8 10 11 7 4 3 5 6 6 6 5 6 9 7 10 8 11 11 11 10 9 9 10 12 14 21 23 23 23 24 25 25 25 24 22 22 22 21 20 19 19 19 18 18 18 18 17 17 16 16 15 15 15
3 4 4 4 5 4 4 4 5 4 5 5 4 5 5 5 6 6 5 7 6 5 4 5 5 4 5 3 5 6 8 5 8 5 5 5 6 8 6 6 5 4 4 7 11 10 8 3 7 10 10 10 10 11 11 11 17 20 22 23 24 23 24 25 25 25 24 23 22 21 21 20 20 19 19 19 18 18 17 17 16 16 16 16 15
3 6 5 4 4 4 5 6 5 5 4 3 3 5 6 7 7 5 5 6 6 5 5 5 5 3 5 5 5 5 5 5 8 6 3 3 6 6 7 8 8 7 4 6 5 8 10 11 9 5 8 10 10 9 9 10 12 14 17 22 25 24 24 24 25 25 25 24 23 22 21 21 21 20 20 20 20 19 18 17 17 17 16 16 16
3 4 4 5 5 5 5 5 6 6 4 4 4 5 6 6 4 3 6 6 5 4 5 4 5 5 6 7 6 6 5 5 7 6 5 6 3 8 9 9 8 8 7 4 4 4 8 11 9 7 8 9 11 11 10 10 10 10 11 14 24 24 24 24 24 25 25 25 24 23 23 22 21 21 21 20 21 20 19 18 18 17 17 17 17
4 3 2 3 4 4 5 5 5 5 4 3 4 6 5 3 4 3 6 4 4 5 5 5 4 4 6 8 9 7 4 4 5 6 9 5 6 4 3 4 1 4 4 5 6 5 6 7 5 6 8 7 7 9 10 11 13 13 15 16 19 23 24 25 24 24 24 24 25 24 24 23 22 22 21 21 21 21 20 19 18 18 18 17 17
2 3 3 3 3 4 4 4 4 5 4 3 4 2 2 3 3 4 2 4 6 4 4 5 5 5 4 4 3 3 1 2 6 7 9 9 9 7 9 7 5 7 6 7 8 7 8 6 5 5 5 6 11 9 8 9 9 10 12 18 20 23 24 24 25 24 24 25 25 25 24 24 23 22 22 20 20 20 21 20 19 18 18 18 17
2 3 2 2 3 3 4 5 5 4 1 3 3 1 2 6 3 4 4 5 4 4 4 6 5 6 4 2 2 2 2 3 4 3 4 7 9 8 7 5 4 6 7 7 6 5 7 7 6 9 7 7 9 8 9 10 10 9 12 17 19 20 22 23 24 24 24 24 25 25 25 25 24 23 21 20 20 20 21 20 19 19 18 18 18
2 2 2 3 3 3 4 6 5 6 5 5 4 3 3 2 3 5 4 4 4 4 5 5 4 6 5 3 3 5 4 3 3 3 3 4 7 7 8 9 9 7 5 6 5 6 7 6 6 7 7 7 9 9 8 11 9 8 11 18 19 21 21 22 23 24 24 24 24 25 24 24 24 24 23 23 22 21 20 20 19 19 19 18 18
4 3 2 3 2 2 4 5 5 5 5 5 5 5 5 4 2 2 4 5 4 3 4 3 3 4 4 4 5 5 5 4 5 3 4 5 6 7 6 6 10 13 9 7 5 4 6 7 7 8 9 9 9 8 6 11 12 13 19 17 19 19 22 23 23 23 23 24 25 25 24 24 24 24 24 23 23 23 22 21 21 20 20 20 19
3 3 3 3 2 2 3 4 4 4 5 5 5 5 5 4 4 4 4 3 2 2 3 2 2 2 4 4 5 4 6 4 5 5 4 5 4 7 7 7 9 9 9 8 8 8 8 8 7 8 9 8 8 9 9 7 11 18 13 18 20 21 18 20 22 23 23 23 23 24 24 24 23 23 23 23 23 23 23 23 22 21 21 21 20
3 2 3 3 3 2 2 3 3 3 3 3 4 4 3 4 4 5 5 4 1 1 1 3 2 3 4 5 6 5 6 5 6 6 5 5 4 7 6 5 9 11 9 8 8 6 5 6 6 8 8 8 9 10 9 9 9 14 17 15 21 21 20 19 21 21 22 22 23 23 23 22 22 21 21 21 22 22 22 23 23 22 22 21 21
2 3 3 3 2 2 3 3 2 3 3 3 4 4 3 3 3 4 5 4 3 3 2 2 2 4 4 4 4 4 6 8 7 6 5 6 8 9 11 9 8 11 9 8 8 9 6 6 6 6 7 9 9 8 8 9 11 17 20 10 11 15 16 19 21 22 22 22 22 22 22 22 22 21 21 21 21 21 22 22 22 21 21 21 21
3 2 3 2 3 2 3 3 3 3 3 3 4 3 3 3 3 4 4 3 3 3 3 3 4 4 3 2 4 4 5 5 5 4 2 4 6 6 6 11 12 10 10 8 9 10 11 7 5 5 7 8 7 7 8 7 9 14 16 10 7 18 24 16 14 20 23 23 22 23 22 22 21 21 21 21 21 21 21 21 21 21 20 20 19
3 2 3 3 2 2 3 3 3 4 4 4 4 4 3 4 3 3 4 2 2 2 1 2 4 5 4 3 3 5 6 5 5 6 6 5 5 5 5 6 10 14 11 10 8 9 8 8 5 7 7 8 6 5 6 9 9 14 13 6 9 12 18 12 4 7 16 20 22 22 22 21 21 21 21 21 21 20 20 20 20 20 20 19 18
4 4 3 2 2 2 3 3 3 3 5 4 4 4 3 4 4 3 3 2 2 2 3 4 4 5 4 7 5 3 4 6 6 5 4 4 5 6 4 6 7 10 12 12 11 10 10 9 9 4 7 6 7 6 7 9 10 12 7 8 8 8 12 14 9 15 17 20 23 22 22 22 22 21 21 21 22 21 21 20 19 19 19 18 18
2 3 3 3 3 4 3 4 3 4 5 6 5 4 4 4 3 3 3 2 2 2 3 4 4 4 5 4 5 6 5 6 7 7 6 7 7 6 6 7 7 9 9 12 14 8 9 7 9 9 5 7 7 7 8 9 13 12 7 6 6 7 11 14 11 16 14 18 25 24 22 22 22 22 22 22 22 22 22 21 20 19 18 18 18
3 2 3 3 3 4 3 4 5 5 4 5 5 4 4 4 3 2 1 1 3 3 3 2 2 2 1 3 4 5 5 6 7 8 8 8 7 8 8 7 8 9 11 10 12 10 6 9 9 10 8 7 6 7 7 8 10 11 10 9 8 11 15 13 12 16 14 18 21 25 23 22 22 22 22 22 22 22 21 21 20 19 19 18 17
2 2 2 3 4 4 5 6 5 5 5 4 4 4 3 3 2 2 3 3 3 3 3 2 2 1 2 3 3 4 4 5 7 7 8 9 9 9 8 9 9 8 9 12 13 16 9 11 11 12 11 9 10 9 9 8 7 13 9 8 9 12 9 8 14 17 16 18 24 27 25 23 22 22 21 21 21 21 21 21 21 20 19 18 17
3 3 4 4 5 5 5 5 6 6 5 6 5 4 4 4 3 4 4 3 2 3 2 1 2 2 1 3 4 4 4 6 6 7 7 8 9 8 8 9 10 9 10 11 13 15 12 7 10 11 11 10 9 9 11 9 8 8 9 7 7 7 8 8 10 15 18 18 20 24 25 23 22 22 21 21 21 21 22 21 20 20 19 18 17
4 4 5 5 4 5 5 5 6 6 6 6 7 6 6 4 3 3 5 3 4 3 3 2 1 1 1 2 3 4 4 5 6 7 7 7 7 9 9 8 9 10 9 12 12 13 16 9 9 9 10 10 11 9 11 11 10 8 8 8 8 8 9 8 9 10 17 18 19 21 23 23 22 22 21 22 21 21 21 21 21 20 19 18 18
4 5 4 3 3 5 6 6 6 6 5 6 4 5 7 5 4 4 5 4 2 4 5 2 2 1 1 2 3 3 3 4 5 5 6 7 6 7 9 8 9 10 11 10 12 14 15 13 9 10 9 8 11 11 12 12 10 10 11 10 9 8 8 9 9 9 13 16 17 19 22 23 22 22 22 22 21 21 20 20 20 20 20 19 18
3 2 3 5 7 7 7 7 7 6 6 1 2 4 4 4 3 5 5 4 4 5 5 3 2 1 2 2 2 2 3 4 4 6 6 7 7 7 8 9 9 10 10 11 11 12 13 15 11 9 8 7 8 11 9 10 10 10 10 10 8 8 9 9 10 9 11 15 17 20 23 24 23 23 22 21 20 20 19 19 20 20 19 19 19
3 6 6 3 3 5 7 6 5 5 5 4 5 6 7 3 4 4 3 3 5 8 6 4 3 2 2 3 3 3 3 4 5 6 7 8 8 7 8 8 9 10 10 10 12 11 12 14 13 11 10 9 10 10 8 8 8 7 8 10 10 11 11 10 9 9 14 18 19 21 22 22 22 22 22 21 20 20 19 20 20 20 20 19 19
3 3 4 5 6 7 6 6 6 5 5 4 7 7 5 6 5 4 3 2 3 5 6 5 3 3 2 3 4 3 3 4 5 6 6 8 8 7 7 9 8 9 11 12 11 12 12 13 14 14 10 9 10 10 11 9 9 8 8 10 7 8 9 10 10 8 9 9 8 9 14 17 20 22 22 21 21 21 20 20 20 20 19 18 18
6 4 5 8 7 5 5 5 5 4 5 7 6 6 4 4 4 5 5 6 8 7 6 7 5 5 5 4 5 5 4 3 5 6 6 7 7 7 7 7 8 8 10 10 11 12 11 12 13 12 12 11 8 11 10 9 9 11 11 8 9 9 10 12 10 8 9 10 12 14 13 13 15 13 17 20 20 20 19 19 18 19 18 18 18
7 8 7 4 4 4 5 5 4 5 6 8 4 2 5 4 5 3 0 6 11 12 8 6 6 7 7 7 7 6 4 3 4 5 6 6 6 7 7 7 8 9 10 10 10 10 11 11 11 12 9 11 10 11 11 8 7 7 8 8 9 11 13 12 13 11 10 11 10 9 11 13 13 16 18 17 17 18 19 18 19 19 19 18 18
5 7 6 4 3 5 5 6 7 6 7 4 5 1 2 3 3 5 6 7 11 11 7 7 7 8 8 7 8 7 7 7 10 10 11 10 6 7 8 7 9 9 9 8 10 10 10 11 12 11 11 11 10 9 10 10 9 9 9 9 10 10 11 12 12 12 11 11 10 9 9 9 9 8 8 8 10 13 14 16 15 20 20 19 19
4 4 4 3 4 6 7 6 4 5 5 3 2 9 7 4 4 5 7 7 6 7 7 8 9 9 9 8 9 15 12 12 12 14 15 15 14 9 8 8 10 10 10 11 11 10 10 11 11 11 12 12 10 8 11 12 9 7 9 10 11 9 7 10 9 9 10 11 10 10 10 8 9 9 8 10 9 11 10 9 10 11 16 18 19
4 4 5 7 6 3 5 6 7 2 3 2 4 12 11 14 9 6 4 4 5 6 7 8 9 9 9 9 9 11 7 8 11 16 16 15 14 12 12 13 13 11 11 12 12 11 11 12 11 11 11 14 13 10 10 10 11 10 9 9 9 9 9 8 10 6 8 10 10 10 9 8 9 10 8 9 9 9 10 11 17 17 18 19 19
4 5 5 5 3 2 4 7 2 3 4 5 9 12 11 11 10 6 5 5 5 6 5 7 8 9 10 10 5 9 8 11 14 14 9 9 6 8 11 15 16 17 16 13 12 11 10 12 13 12 13 12 13 11 10 9 11 10 6 8 7 9 9 11 10 10 6 11 10 10 11 8 9 10 10 10 9 8 10 13 18 19 19 21 21
4 5 5 5 5 5 6 3 3 3 2 3 7 9 8 7 9 9 6 7 7 7 7 7 8 9 10 3 5 6 7 10 8 14 12 8 2 7 14 16 15 15 16 18 15 13 12 13 12 14 13 12 13 12 11 11 8 10 6 10 11 10 10 11 12 8 7 10 10 8 9 9 10 11 11 11 9 9 10 14 18 20 20 20 20
5 6 6 5 4 4 4 4 3 2 2 5 6 7 8 9 10 7 6 8 8 7 7 7 8 8 4 2 4 6 9 8 8 10 9 6 4 8 9 10 11 14 15 17 17 18 15 12 12 14 14 12 14 13 14 11 12 11 8 9 9 8 4 9 8 7 1 8 10 7 8 8 10 11 12 11 9 9 10 14 18 19 20 20 20
6 5 5 4 3 4 4 4 3 4 2 7 7 7 8 10 11 6 6 7 8 7 6 8 9 7 6 7 3 6 7 7 6 8 4 4 7 8 10 10 12 13 13 14 15 15 15 15 14 16 16 15 15 16 15 14 15 13 10 9 10 6 8 14 6 1 4 6 7 3 5 6 7 10 11 11 9 9 9 13 20 19 19 20 20
6 6 5 4 6 7 4 3 3 3 3 12 11 10 9 9 8 5 6 7 7 7 6 7 7 5 4 6 8 8 7 7 9 6 3 3 6 10 11 12 13 13 12 13 16 17 16 16 17 19 20 20 20 17 15 13 11 10 10 10 5 3 8 9 9 8 5 7 10 7 7 8 8 10 10 9 8 9 11 11 16 21 20 20 20
9 8 5 5 5 4 3 4 3 3 2 5 8 8 9 9 4 5 6 6 6 7 6 6 6 6 4 7 9 9 6 3 3 5 1 4 6 9 11 11 12 13 14 14 17 19 21 24 27 29 30 30 29 29 27 28 22 15 11 8 10 8 8 7 5 6 7 9 11 14 11 7 6 9 8 5 7 9 10 11 11 14 20 19 17
9 8 6 3 4 1 3 5 4 3 3 7 10 11 10 7 4 5 5 5 6 6 6 6 5 6 7 7 5 6 6 4 2 3 9 7 5 7 9 11 13 14 15 14 12 15 23 24 26 28 28 28 28 29 29 27 25 17 14 11 8 9 10 8 7 6 5 6 6 9 6 7 5 7 7 4 4 6 9 5 3 1 9 13 16
7 5 5 7 2 3 6 7 6 5 4 3 10 11 9 8 5 4 5 5 5 6 5 5 5 6 6 7 11 8 5 4 7 6 7 3 5 7 8 9 12 14 15 17 17 17 17 19 20 20 16 15 17 15 17 25 24 19 14 14 9 8 8 8 7 5 7 8 8 10 9 6 8 5 7 4 6 6 3 1 6 6 5 5 5
Wind_Direction
147 152 167 180 179 197 192 184 208 196 197 179 171 182 198 198 196 205 192 195 180 175 197 215 244 215 198 213 200 185 219 216 241 242 242 184 174 189 207 211 194 178 184 188 189 192 195 199 202 206 209 208 208 205 204 203 200 197 196 196 198 200 203 206 207 210 214 216 218 218 219 217 213 213 215 221 223 228 232 235 241 246 248 252 249
158 155 177 176 190 198 184 182 219 216 217 187 181 184 202 217 210 204 204 196 193 198 211 221 216 211 214 228 228 206 206 226 232 238 263 218 189 195 199 198 203 189 184 188 191 194 197 199 202 208 211 211 209 210 207 207 206 202 200 199 200 203 205 207 209 211 214 217 217 219 221 220 218 215 219 214 221 225 229 233 237 242 245 246 247
165 166 169 177 189 206 177 181 249 285 313 4 214 282 291 281 262 267 222 217 221 198 203 222 221 215 214 209 219 212 218 222 225 231 235 220 147 212 209 206 206 201 190 186 188 195 198 199 203 207 212 214 214 212 211 208 209 207 205 202 203 205 207 205 209 212 214 217 217 217 219 220 221 221 223 221 224 224 227 230 235 240 245 246 246
170 174 168 172 189 199 190 166 208 265 325 342 332 317 318 300 289 277 250 229 246 238 237 253 248 231 226 217 213 218 222 236 236 234 225 224 181 192 201 213 212 212 199 191 189 193 198 200 202 206 208 213 217 218 214 212 210 210 208 206 206 206 206 207 209 213 215 216 217 216 217 220 221 219 222 223 225 228 228 230 232 237 243 247 245
172 191 180 181 185 200 216 216 223 207 229 276 283 313 322 287 269 267 249 226 244 249 239 242 250 253 249 227 202 214 216 213 237 249 241 224 190 208 202 206 209 218 210 202 193 194 196 200 202 203 207 210 215 219 218 216 214 211 211 210 210 207 206 206 210 213 215 214 214 216 218 222 223 223 223 225 228 232 232 231 233 236 240 244 246
156 179 189 200 212 214 277 291 320 318 14 359 330 318 301 302 299 299 292 288 280 282 282 273 271 253 225 234 206 213 202 212 218 229 246 242 211 199 211 201 207 206 218 218 207 197 198 199 202 203 204 208 210 215 218 218 219 214 211 212 211 210 208 207 211 213 213 213 214 215 216 219 224 225 224 224 226 231 235 237 237 237 236 236 242
172 163 164 171 322 308 234 276 358 60 351 325 316 306 294 299 323 317 306 296 299 300 295 287 285 276 269 236 248 228 198 211 213 224 229 241 243 214 208 192 193 203 210 213 220 215 203 201 202 204 207 208 209 211 215 219 220 219 217 212 210 211 210 210 210 210 212 212 215 215 216 218 221 225 226 226 225 226 231 236 238 239 238 236 238
192 163 166 152 100 271 310 53 43 53 268 322 288 276 270 269 275 279 280 277 290 288 270 274 268 268 273 275 257 239 243 244 232 215 223 225 233 233 223 191 190 203 193 207 215 219 217 207 203 204 205 209 211 213 214 217 220 220 220 218 212 211 211 211 211 210 211 212 213 215 217 218 221 224 225 226 226 224 226 230 234 236 238 238 238
216 234 240 220 225 230 228 333 110 224 240 219 237 265 291 286 275 269 266 281 278 280 276 268 276 281 284 264 256 255 255 254 255 258 246 229 225 228 224 200 197 200 193 198 207 214 218 212 210 205 205 206 209 212 215 217 218 220 221 221 218 214 211 210 211 211 212 212 213 215 217 219 221 223 226 226 226 226 225 226 230 235 236 238 238
186 196 196 204 191 209 210 187 180 221 232 249 259 271 272 269 273 259 261 276 278 280 289 294 300 300 293 290 286 273 260 246 232 235 240 242 236 227 229 215 210 204 201 205 191 202 207 218 217 213 207 206 207 210 211 214 217 219 220 222 221 219 215 211 210 210 211 212 214 215 217 219 221 222 225 227 227 227 227 228 229 230 232 233 236
238 231 213 215 216 213 213 221 207 197 220 244 249 253 259 246 253 269 260 251 267 286 288 287 283 282 282 281 280 276 278 269 250 234 234 240 239 228 225 218 222 220 206 211 204 196 195 203 212 213 211 209 208 209 211 212 214 218 220 221 222 221 219 215 211 209 209 210 212 214 217 218 220 222 224 226 228 228 228 229 230 230 230 230 233
289 298 268 238 230 229 222 206 207 205 220 242 251 235 233 243 248 258 271 271 267 266 268 268 266 271 276 278 272 272 265 258 253 245 239 238 239 230 229 222 216 209 208 214 218 211 192 204 209 213 214 212 210 210 212 212 213 215 218 220 221 221 222 219 215 212 210 210 210 213 215 218 220 223 225 227 227 228 229 230 231 231 231 231 231
204 206 240 258 259 246 222 211 217 208 212 232 228 231 233 239 252 248 258 267 264 251 248 255 271 275 269 268 271 260 258 256 250 240 236 236 234 232 222 226 224 219 213 205 210 216 210 193 200 208 213 213 212 213 212 214 214 214 215 218 220 220 220 220 218 215 214 213 212 212 214 215 218 220 224 225 227 228 230 230 231 231 232 232 233
239 235 243 244 245 233 238 241 223 211 209 219 226 230 239 249 255 263 240 251 255 254 262 275 257 262 280 283 274 266 253 249 241 235 235 230 227 224 235 234 232 222 220 218 220 220 222 195 191 199 209 207 213 211 216 217 218 217 216 216 218 219 219 220 219 217 216 214 214 214 214 215 216 219 221 223 226 228 229 230 230 231 231 233 234
247 246 245 252 271 274 252 232 230 229 220 226 234 250 248 250 250 252 268 252 256 251 252 226 264 270 281 295 287 295 268 245 245 239 234 225 209 242 243 250 256 250 247 248 246 226 223 192 190 190 200 201 207 214 213 213 214 217 217 216 216 218 219 219 218 218 216 215 215 214 214 214 215 218 220 222 225 227 229 229 230 231 231 233 234
262 221 218 241 240 253 278 268 251 246 235 233 234 241 245 249 248 253 256 274 266 271 252 241 234 265 281 247 295 302 307 284 274 261 235 191 185 222 221 239 263 323 14 334 303 312 312 260 185 183 196 202 204 210 213 212 213 214 216 217 216 217 219 219 219 218 217 216 216 215 215 214 215 216 219 222 225 227 228 229 230 230 232 232 234
350 345 338 318 314 300 284 280 275 273 274 269 258 250 254 256 256 258 260 268 270 272 276 275 268 230 251 290 287 261 260 301 346 312 246 212 218 215 231 235 229 236 194 221 266 290 273 276 268 218 201 206 210 218 215 209 209 213 216 216 216 216 216 220 220 219 218 217 215 216 215 215 214 215 217 221 223 226 227 229 230 231 232 232 234
333 307 309 315 305 304 306 328 329 306 301 280 270 276 273 269 263 210 248 237 234 256 273 272 256 247 238 235 238 265 283 302 312 296 328 307 246 219 227 231 223 208 216 199 220 236 290 288 256 251 226 209 213 216 217 217 211 205 207 213 215 216 217 218 219 219 220 218 216 216 216 215 215 215 217 218 222 224 225 226 229 231 232 232 233
308 313 293 295 307 316 306 303 292 307 301 303 287 268 272 305 343 284 245 234 212 241 258 277 297 263 252 245 249 257 282 288 271 299 294 291 287 286 228 232 215 283 234 213 221 210 247 259 302 306 293 272 242 216 214 218 216 209 206 208 211 214 217 218 218 219 219 218 218 216 216 215 215 216 217 219 223 224 224 225 226 229 231 231 232
295 278 291 287 292 293 288 283 262 259 285 287 277 254 315 315 220 259 283 282 270 261 267 273 277 285 280 301 297 285 313 275 257 268 282 294 285 280 273 256 180 209 215 209 209 215 214 233 253 267 278 294 279 258 223 218 221 211 210 214 214 212 214 216 218 218 218 219 218 218 216 216 215 216 217 219 221 223 226 226 225 225 228 230 231
275 300 292 311 300 295 303 296 294 302 296 258 265 306 232 245 232 243 235 225 217 243 252 260 268 281 306 298 315 263 241 246 271 279 282 292 291 291 293 287 236 207 210 227 232 227 229 237 230 255 261 263 270 262 244 223 218 214 212 216 212 206 209 212 215 217 218 219 220 219 218 217 216 215 214 215 218 221 225 227 226 225 225 228 230
291 279 309 301 304 323 325 323 333 332 333 314 316 306 238 241 205 205 234 252 236 222 247 269 287 310 328 313 292 299 272 259 238 250 263 240 276 294 299 302 291 276 230 220 213 217 237 236 236 231 227 232 244 252 268 261 219 221 226 214 210 215 212 211 213 214 216 218 220 221 219 219 217 217 216 215 217 219 221 223 224 224 223 223 225
288 272 274 263 298 325 318 326 333 325 318 332 333 336 333 337 338 280 219 237 272 277 258 262 311 311 293 276 282 279 282 280 282 264 254 268 285 283 296 295 291 298 286 274 259 235 214 221 223 220 229 234 239 243 209 246 250 225 226 220 217 213 215 214 210 211 213 215 216 219 220 220 220 220 219 218 218 220 220 220 222 222 223 223 224
242 274 257 315 15 346 335 326 328 336 334 336 328 331 329 331 325 312 293 268 257 272 291 308 287 275 274 285 276 271 279 267 283 286 277 270 261 286 287 294 291 277 290 290 272 259 246 235 219 209 220 228 234 237 234 252 273 258 221 225 217 219 218 212 210 209 212 213 214 216 218 219 220 221 222 221 221 220 220 221 220 222 223 223 222
281 307 7 344 9 337 318 311 317 313 314 307 312 312 318 311 312 312 316 318 294 263 287 296 320 300 297 302 312 322 290 285 289 303 309 297 265 277 261 257 273 284 280 279 283 278 260 259 227 207 218 222 226 232 240 241 246 274 277 239 212 212 222 215 210 210 211 212 212 214 216 218 219 220 221 222 222 221 220 221 221 220 222 222 222
320 354 344 335 302 301 304 304 293 296 302 303 295 299 298 285 290 300 303 313 316 333 307 319 267 242 246 268 285 281 305 321 328 339 346 326 305 294 300 289 276 283 285 282 276 280 266 240 233 219 223 233 233 234 236 229 241 266 279 293 297 265 230 217 211 209 209 209 211 213 214 215 217 218 219 221 221 221 220 220 221 220 220 220 223
313 332 300 285 297 312 308 306 307 300 295 293 282 285 291 294 293 291 299 301 323 328 312 320 311 305 299 306 308 316 313 317 328 308 237 266 270 279 287 300 291 276 278 273 277 254 265 266 246 230 224 237 236 222 226 223 224 235 256 279 272 288 301 289 242 219 207 206 209 210 213 213 215 216 218 220 221 222 221 220 220 220 220 221 221
285 280 281 286 315 308 305 300 309 303 300 297 299 292 289 292 281 282 294 317 325 310 309 290 309 314 316 323 344 339 315 304 283 273 260 246 250 263 258 267 286 292 286 279 262 260 247 266 253 227 221 221 221 227 225 235 242 228 247 232 238 238 249 252 215 269 274 249 213 211 211 213 213 215 218 219 221 222 223 222 222 221 221 221 221
268 254 263 311 310 291 282 287 282 284 288 295 289 281 286 290 289 288 275 306 300 298 299 302 302 313 337 355 357 307 297 315 308 298 269 259 266 263 231 253 256 277 289 286 269 268 264 256 268 238 197 217 227 222 215 228 231 225 209 192 211 222 238 244 211 226 216 250 253 216 213 212 213 215 216 218 219 220 221 222 222 222 222 223 224
325 317 296 283 281 296 293 284 287 278 268 267 263 272 274 271 282 278 284 283 274 284 295 303 315 350 13 336 325 312 313 315 315 315 327 323 311 311 297 274 258 259 269 278 282 265 274 254 251 259 217 222 222 229 226 232 235 218 196 187 207 220 244 251 217 225 201 220 244 239 218 216 215 215 216 218 219 220 220 221 221 222 223 224 225
247 261 286 292 291 285 282 279 273 273 265 259 262 260 264 268 268 273 280 292 267 250 247 292 331 29 328 294 290 304 314 318 321 332 330 328 325 317 309 302 292 270 271 269 276 270 247 269 260 254 259 254 229 233 234 233 236 221 222 219 212 207 211 243 232 236 216 219 231 242 229 219 217 216 215 217 219 219 221 221 222 222 222 223 224
250 260 282 285 285 295 295 291 287 279 281 286 277 270 271 268 254 273 255 239 267 283 294 280 337 320 274 292 314 312 330 330 335 333 329 328 325 324 324 316 304 291 280 273 269 277 261 265 266 266 253 246 244 238 235 241 234 216 213 212 214 221 225 234 229 231 234 225 229 234 232 223 220 218 216 215 216 217 219 220 220 221 221 222 224
279 282 263 258 258 253 256 267 280 284 293 289 284 288 274 261 252 243 252 263 288 273 257 276 218 248 288 322 319 332 346 342 334 328 325 323 324 323 320 316 311 308 304 295 288 285 275 249 256 257 256 241 237 215 232 225 220 217 210 207 202 213 228 232 237 234 233 230 229 233 230 223 220 219 216 214 214 215 217 218 218 218 219 220 221
238 245 256 265 266 262 264 279 282 292 294 298 300 285 274 271 271 269 267 265 263 270 261 259 253 262 315 319 328 336 349 340 329 323 320 315 317 314 315 318 314 314 315 311 301 289 285 280 266 257 252 227 243 205 223 225 225 217 205 207 196 204 215 225 231 237 233 234 230 227 229 225 220 217 215 214 213 213 214 215 216 215 216 217 218
236 242 249 262 293 296 281 269 267 264 260 265 291 313 305 294 276 264 269 280 275 266 269 277 288 333 294 313 312 327 336 322 316 310 308 306 303 303 311 312 313 312 310 307 308 303 294 281 270 269 260 240 224 227 218 227 222 209 214 218 212 209 207 211 226 234 237 240 236 229 225 222 217 215 214 213 212 211 211 213 214 214 213 214 215
258 269 268 260 247 248 258 265 265 267 265 197 245 264 278 289 300 298 292 290 278 265 272 273 271 267 294 284 277 295 303 293 300 304 306 305 303 308 307 311 312 313 315 314 313 309 304 292 274 262 259 252 252 241 217 218 214 210 216 220 220 223 218 213 217 227 238 242 244 234 225 218 214 212 211 210 210 210 210 212 214 214 214 213 213
268 258 247 241 277 278 267 261 265 272 275 210 245 243 250 235 248 257 270 284 285 284 277 268 254 253 259 270 281 281 282 291 296 310 315 308 306 307 305 311 314 317 317 315 312 311 308 300 289 269 257 249 245 244 227 203 218 210 224 229 210 216 223 219 214 224 228 234 237 234 221 215 213 211 210 208 207 208 208 210 212 214 214 213 213
229 255 263 249 244 248 258 266 262 255 267 221 220 241 245 259 256 262 259 248 260 260 259 262 259 255 244 260 269 267 277 290 294 300 307 304 302 300 308 311 313 318 317 315 308 308 307 302 296 280 265 254 257 242 234 210 201 196 215 222 227 228 231 230 218 213 218 224 224 227 226 216 210 210 210 208 206 206 208 209 212 213 213 212 213
275 282 274 260 246 251 262 270 278 298 293 290 272 235 267 340 354 334 333 316 286 267 271 276 273 272 254 248 249 244 248 264 279 282 288 293 290 293 302 301 311 308 316 311 310 308 305 304 299 280 270 264 256 273 253 223 196 194 204 194 214 225 223 224 222 207 212 222 226 219 211 207 210 211 215 212 208 206 206 208 211 212 212 212 212
278 270 275 288 309 302 299 291 299 286 276 271 245 58 82 261 251 260 262 284 288 280 270 268 268 268 260 245 249 254 242 239 250 255 264 271 278 290 296 292 296 307 312 309 311 307 304 306 301 299 274 270 264 242 251 230 204 206 210 195 203 214 217 220 216 202 206 210 216 216 217 212 211 208 210 211 210 207 207 208 210 210 210 210 210
253 264 272 292 299 290 283 280 271 262 274 356 58 9 248 265 237 253 269 255 249 256 252 252 256 261 260 249 251 249 242 242 235 245 248 251 267 276 287 292 298 305 305 298 306 301 302 301 302 301 296 281 268 274 267 246 215 197 201 203 217 220 219 215 219 212 200 200 210 208 210 201 206 205 203 204 215 211 213 209 211 210 207 205 205
244 258 265 251 273 267 261 261 271 283 30 65 252 214 234 248 251 229 231 241 268 287 279 268 263 261 260 253 241 250 238 227 239 245 248 249 245 241 263 286 296 297 298 301 299 302 299 298 297 300 295 287 278 265 263 259 247 212 205 206 212 221 240 245 229 213 196 191 199 208 216 205 196 199 191 203 206 190 204 194 212 203 208 205 204
235 252 249 248 248 277 299 297 280 17 114 207 279 287 265 245 237 238 257 262 266 279 287 288 281 273 263 254 245 241 248 272 245 240 247 247 248 249 257 263 268 275 295 294 293 293 295 291 290 287 287 288 283 274 261 262 258 235 212 202 198 201 211 220 236 238 204 177 193 202 217 209 200 204 201 200 198 183 197 199 205 202 198 200 204
227 230 248 246 241 249 264 266 288 152 213 202 206 225 228 247 259 254 255 268 268 267 278 286 287 286 287 279 328 13 335 292 317 295 273 269 252 247 262 278 282 278 270 271 286 292 286 290 287 283 283 278 283 280 273 259 255 249 197 245 217 204 202 219 219 218 199 181 180 201 216 197 195 203 210 211 201 195 195 199 196 201 195 196 201
219 233 232 231 232 225 234 233 207 228 183 236 265 277 284 283 260 249 261 270 275 278 277 285 287 284 282 24 35 282 276 275 278 277 285 297 236 292 291 288 285 283 295 294 276 261 276 278 278 279 275 278 276 273 272 271 265 265 226 212 219 215 207 217 227 210 214 191 186 194 209 197 187 201 209 212 206 201 203 201 194 197 199 196 199
230 239 236 235 238 241 248 217 251 242 195 212 241 277 298 294 276 262 274 282 283 279 277 290 293 296 313 129 226 250 261 255 240 260 281 296 305 297 297 302 300 302 305 303 298 291 282 280 275 273 272 265 267 272 273 273 270 265 260 249 229 223 174 235 244 235 183 157 166 196 221 205 194 196 209 210 199 198 197 200 196 195 200 202 201
251 232 230 231 239 258 230 198 229 243 238 170 216 249 261 260 263 268 270 272 274 274 280 284 282 275 287 290 258 248 247 230 226 262 280 309 313 307 301 296 299 302 302 306 308 309 306 297 284 278 273 265 263 265 265 258 256 262 257 256 260 251 208 202 198 196 117 140 147 145 259 239 191 199 210 205 191 194 194 200 197 197 201 204 205
271 258 242 229 232 242 218 207 250 234 162 175 199 197 225 246 264 252 243 248 261 270 276 278 282 284 276 278 277 273 267 263 274 263 217 313 314 317 303 299 303 301 300 295 289 291 290 286 281 279 276 269 262 259 260 269 282 277 258 268 248 161 250 223 201 190 164 184 172 176 222 225 197 200 212 210 201 200 204 202 199 198 201 204 202
260 250 237 229 242 268 257 233 177 214 234 202 207 208 222 232 232 245 245 254 267 274 273 276 297 306 280 212 238 255 265 293 126 166 39 37 331 309 299 296 298 303 309 314 307 299 290 285 277 269 261 254 250 248 247 251 252 259 271 248 244 223 208 206 209 197 190 168 188 193 212 224 180 193 207 215 215 216 207 203 197 195 197 197 191
246 242 242 252 272 254 335 295 238 187 229 219 188 208 228 241 219 259 256 247 247 263 280 286 287 290 314 302 228 269 294 307 133 11 34 19 317 298 292 299 304 309 317 320 311 308 299 288 286 283 268 249 238 236 238 237 241 238 239 241 237 224 216 190 200 207 211 207 198 186 211 219 199 183 196 189 250 249 216 167 98 153 187 183 181
240 258 266 270 306 6 288 276 277 230 259 137 193 228 229 239 227 252 255 250 259 265 267 262 259 288 294 284 271 275 289 351 58 18 42 348 280 279 288 297 305 317 322 321 317 312 311 315 318 320 304 244 228 224 227 230 229 227 224 234 231 237 220 200 197 192 220 228 215 179 201 210 210 208 179 151 205 255 349 53 140 137 154 137 147